CPA1690 YMML-YSSY

Flight info

Callsign CPA1690
Flight time N/A
Altitude 35000
Route DOSEL2/34 DOSEL Y59 RIVET RIVET4/34L
Aircraft B748/H-VGDW/C

Departure

Time N/A
Airport Melbourne Airport (YMML)

Arrival

Time 2026-05-01 07:46
Airport Sydney Kingsford Smith International Airport (YSSY)
Time Latitude Longitude Altitude Speed Heading
2026-05-01 07:23 -33.65245 149.50436 15437 ft 411 kts 57°
2026-05-01 07:23 -33.63866 149.56929 13905 ft 404 kts 95°
2026-05-01 07:24 -33.64459 149.60129 13385 ft 388 kts 115°
2026-05-01 07:24 -33.65841 149.62782 13329 ft 359 kts 135°
2026-05-01 07:24 -33.67678 149.64542 13332 ft 330 kts 153°
2026-05-01 07:24 -33.69678 149.65883 13337 ft 323 kts 155°
2026-05-01 07:25 -33.71656 149.67174 13344 ft 326 kts 155°
2026-05-01 07:25 -33.73650 149.68477 13343 ft 328 kts 155°
2026-05-01 07:25 -33.75667 149.69797 13342 ft 328 kts 155°
2026-05-01 07:25 -33.77665 149.71106 13341 ft 328 kts 155°
2026-05-01 07:26 -33.81247 149.73453 13341 ft 328 kts 155°
2026-05-01 07:26 -33.83254 149.74770 13342 ft 328 kts 155°
2026-05-01 07:26 -33.85262 149.76088 13342 ft 328 kts 155°
2026-05-01 07:26 -33.87261 149.77402 13342 ft 329 kts 155°
2026-05-01 07:27 -33.89320 149.78752 13350 ft 343 kts 154°
2026-05-01 07:27 -33.92441 149.80801 13342 ft 343 kts 154°
2026-05-01 07:27 -33.96076 149.83394 13348 ft 346 kts 144°
2026-05-01 07:27 -33.97857 149.85362 13349 ft 349 kts 136°
2026-05-01 07:28 -33.99462 149.87628 13347 ft 351 kts 130°
2026-05-01 07:28 -34.00899 149.89969 13344 ft 352 kts 128°
2026-05-01 07:28 -34.02287 149.92421 13343 ft 352 kts 126°
2026-05-01 07:28 -34.03625 149.94897 13343 ft 352 kts 125°
2026-05-01 07:29 -34.04937 149.97391 13343 ft 353 kts 125°
2026-05-01 07:29 -34.06236 149.99898 13342 ft 353 kts 124°
2026-05-01 07:29 -34.07531 150.02418 13342 ft 353 kts 124°
2026-05-01 07:29 -34.08815 150.04933 13342 ft 353 kts 124°
2026-05-01 07:30 -34.10095 150.07449 13343 ft 353 kts 124°
2026-05-01 07:30 -34.11373 150.09967 13345 ft 353 kts 124°
2026-05-01 07:30 -34.12650 150.12486 13345 ft 353 kts 124°
2026-05-01 07:30 -34.13935 150.15022 13345 ft 353 kts 124°
2026-05-01 07:31 -34.15212 150.17548 13345 ft 353 kts 124°
2026-05-01 07:31 -34.20838 150.28680 13347 ft 365 kts 124°
2026-05-01 07:32 -34.23498 150.33937 12687 ft 362 kts 124°
2026-05-01 07:32 -34.24797 150.36514 12313 ft 358 kts 124°
2026-05-01 07:33 -34.26568 150.41985 11584 ft 359 kts 93°
2026-05-01 07:33 -34.26256 150.44961 11237 ft 359 kts 75°
2026-05-01 07:33 -34.24442 150.50526 10417 ft 356 kts 64°
2026-05-01 07:34 -34.23362 150.53212 9790 ft 355 kts 62°
2026-05-01 07:34 -34.21109 150.58473 8546 ft 350 kts 60°
2026-05-01 07:34 -34.19979 150.61038 7929 ft 348 kts 60°
2026-05-01 07:35 -34.18842 150.63599 7308 ft 345 kts 60°
2026-05-01 07:35 -34.17711 150.66128 6686 ft 343 kts 59°
2026-05-01 07:35 -34.16589 150.68639 6256 ft 333 kts 59°
2026-05-01 07:35 -34.15754 150.71168 6002 ft 320 kts 78°
2026-05-01 07:36 -34.15820 150.73851 6002 ft 320 kts 100°
2026-05-01 07:36 -34.16332 150.76471 6000 ft 323 kts 99°
2026-05-01 07:36 -34.16703 150.79170 5997 ft 323 kts 95°
2026-05-01 07:36 -34.16971 150.81818 6165 ft 310 kts 94°
2026-05-01 07:37 -34.17448 150.87102 6006 ft 309 kts 94°
2026-05-01 07:37 -34.17675 150.89667 6006 ft 311 kts 94°
2026-05-01 07:37 -34.17903 150.92261 6005 ft 312 kts 94°
2026-05-01 07:38 -34.18134 150.94884 6005 ft 312 kts 94°
2026-05-01 07:38 -34.18362 150.97484 6004 ft 313 kts 94°
2026-05-01 07:38 -34.18837 151.02889 4310 ft 337 kts 94°
2026-05-01 07:39 -34.19082 151.05730 3330 ft 344 kts 96°
2026-05-01 07:39 -34.19321 151.08545 3032 ft 326 kts 96°
2026-05-01 07:39 -34.19148 151.13530 2998 ft 272 kts 74°
2026-05-01 07:40 -34.18599 151.15601 2987 ft 244 kts 73°
2026-05-01 07:40 -34.18086 151.17448 2980 ft 219 kts 73°
2026-05-01 07:40 -34.17611 151.19144 2992 ft 208 kts 73°
2026-05-01 07:40 -34.17144 151.20810 3007 ft 210 kts 73°
2026-05-01 07:41 -34.16674 151.22488 3007 ft 212 kts 73°
2026-05-01 07:41 -34.16102 151.24116 2993 ft 214 kts 53°
2026-05-01 07:41 -34.13464 151.25261 3031 ft 215 kts 345°
2026-05-01 07:42 -34.12163 151.24313 3042 ft 220 kts 317°
2026-05-01 07:42 -34.11114 151.22961 3002 ft 215 kts 313°
2026-05-01 07:42 -34.10109 151.21790 2955 ft 189 kts 338°
2026-05-01 07:42 -34.08895 151.21323 3069 ft 182 kts 351°
2026-05-01 07:43 -34.07647 151.20995 2993 ft 184 kts 351°
2026-05-01 07:43 -34.06378 151.20659 3009 ft 185 kts 351°
2026-05-01 07:43 -34.03862 151.19997 2810 ft 186 kts 351°
2026-05-01 07:44 -34.01271 151.19321 1636 ft 193 kts 351°
2026-05-01 07:44 -33.98770 151.18668 511 ft 175 kts 351°
2026-05-01 07:45 -33.96037 151.17967 19 ft 98 kts 352°
2026-05-01 07:46 -33.95357 151.17796 21 ft 89 kts 343°
2026-05-01 07:46 -33.94835 151.17650 26 ft 67 kts 349°
2026-05-01 07:46 -33.94337 151.17364 25 ft 1 kts 318°
2026-05-01 07:47 -33.94334 151.17363 25 ft 0 kts 318°
2026-05-01 07:47 -33.94333 151.17362 25 ft 0 kts 318°
2026-05-01 07:47 -33.94332 151.17360 25 ft 0 kts 318°
2026-05-01 07:47 -33.94331 151.17358 25 ft 0 kts 318°
2026-05-01 07:48 -33.94328 151.17355 25 ft 0 kts 318°
2026-05-01 07:48 -33.94299 151.17326 25 ft 15 kts 325°
2026-05-01 07:48 -33.94160 151.17270 23 ft 20 kts 347°
2026-05-01 07:49 -33.94017 151.17233 23 ft 19 kts 348°
2026-05-01 07:49 -33.93761 151.17166 22 ft 14 kts 347°
2026-05-01 07:49 -33.93673 151.17143 23 ft 12 kts 348°
2026-05-01 07:50 -33.93589 151.17120 25 ft 12 kts 348°
2026-05-01 07:50 -33.93494 151.16940 30 ft 11 kts 315°
2026-05-01 07:50 -33.93469 151.16878 31 ft 8 kts 269°
2026-05-01 07:51 -33.93474 151.16829 32 ft 4 kts 260°
2026-05-01 07:51 -33.93479 151.16800 32 ft 2 kts 259°
2026-05-01 07:51 -33.93481 151.16786 32 ft 2 kts 259°
2026-05-01 07:52 -33.93482 151.16780 32 ft 0 kts 259°